• MPC Preparation (Info)

  • MPEC 2020-F147 : 2020 FH5

    The following Minor Planet Electronic Circular may be linked-to from your own Web pages, but must not otherwise be redistributed electronically.

    A form allowing access to any MPEC is at the bottom of this page.


    Read MPEC 2020-F146 Read MPEC 2020-F148


    M.P.E.C. 2020-F147                               Issued 2020 March 26, 01:44 UT
    
         The Minor Planet Electronic Circulars contain information on unusual
             minor planets and routine data on comets.  They are published
        on behalf of Division F of the International Astronomical Union by the
              Minor Planet Center, Smithsonian Astrophysical Observatory,
                              Cambridge, MA 02138, U.S.A.
    
                 Prepared using the Tamkin Foundation Computer Network
    
                                  MPC@CFA.HARVARD.EDU
                URL https://www.minorplanetcenter.net/    ISSN 1523-6714
    
                                    2020 FH5                                 
    
    
    Observations:
         K20F05H* C2020 03 24.29424 12 23 02.77 +21 29 25.7                VEF147G96
         K20F05H  C2020 03 24.29944 12 23 02.58 +21 30 02.1          21.7 GVEF147G96
         K20F05H  C2020 03 24.30464 12 23 02.43 +21 30 38.4          21.6 GVEF147G96
         K20F05H  C2020 03 24.30984 12 23 02.21 +21 31 13.5          21.4 GVEF147G96
         K20F05H  C2020 03 24.37136 12 23 00.16 +21 38 19.1          21.8 GVEF147G96
         K20F05H  C2020 03 24.37212 12 23 00.14 +21 38 24.7          21.4 GVEF147G96
         K20F05H  C2020 03 24.37287 12 23 00.10 +21 38 29.7          21.0 GVEF147G96
         K20F05H  C2020 03 24.37362 12 23 00.09 +21 38 34.6          21.5 GVEF147G96
         K20F05H  C2020 03 24.96507 12 22 48.03 +22 47 32.1          21.2 VVEF147033
         K20F05H  C2020 03 24.96738 12 22 47.93 +22 47 48.3          20.9 VVEF147033
         K20F05H  C2020 03 24.96968 12 22 47.88 +22 48 04.8          21.0 VVEF147033
         K20F05H KC2020 03 25.01656412 22 46.73 +22 53 37.2          20.9 GVEF147J95
         K20F05H KC2020 03 25.03420012 22 46.21 +22 55 42.8          21.5 GVEF147J95
         K20F05H  C2020 03 25.14091 12 22 42.63 +23 08 20.2          21.4 VVEF147033
         K20F05H  C2020 03 25.14316 12 22 42.56 +23 08 36.3          20.9 VVEF147033
         K20F05H KC2020 03 25.17646712 22 44.05 +23 12 42.9          21.3 VuEF147H21
         K20F05H KC2020 03 25.18266712 22 43.83 +23 13 27.5          20.9 VuEF147H21
         K20F05H KC2020 03 25.18547512 22 43.71 +23 13 48.0          20.9 VuEF147H21
         K20F05H  C2020 03 25.33475 12 22 39.30 +23 31 45.9          23.7 GVEF147I52
         K20F05H  C2020 03 25.33809 12 22 39.19 +23 32 09.5          22.0 GVEF147I52
         K20F05H  C2020 03 25.34144 12 22 39.08 +23 32 32.5                VEF147I52
         K20F05H  C2020 03 25.34478 12 22 38.92 +23 32 57.2          22.4 GVEF147I52
         K20F05H  C2020 03 25.93960 12 22 25.67 +24 45 02.2          22.5 VVEF147033
         K20F05H  C2020 03 25.94174 12 22 25.59 +24 45 17.9          22.2 VVEF147033
         K20F05H  C2020 03 25.94387 12 22 25.52 +24 45 33.3          21.7 VVEF147033
    
    Observer details:
    033 Karl Schwarzschild Observatory, Tautenburg.  Observers F. Ludwig, S. 
       Melnikov, B. Stecklum.  Measurer B. Stecklum.  1.34-m f/3 Schmidt + CCD.
    G96 Mt. Lemmon Survey.  Observer H. Groeller.  Measurers E. J. Christensen, G. 
       A. Farneth, D. C. Fuls, A. R. Gibbs, A. D. Grauer, H. Groeller, R. A. 
       Kowalski, S. M. Larson, G. J. Leonard, T. A. Pruyne, D. Rankin, R. L. Seaman,
        F. C. Shelly, K. W. Wierzchos.  1.5-m reflector + 10K CCD.
    H21 Astronomical Research Observatory, Westfield.  Observer R. Holmes.  
        Measurers S. Foglia, L. Buzzi, T. Linder, R. Holmes.  0.76-m f/3.0 
       astrograph + CCD.
    I52 Steward Observatory, Mt. Lemmon Station.  Observer D. Rankin.  Measurers E. 
       J. Christensen, G. A. Farneth, D. C. Fuls, A. R. Gibbs, A. D. Grauer, H. 
       Groeller, R. A. Kowalski, S. M. Larson, G. J. Leonard, T. A. Pruyne, D. 
       Rankin, R. L. Seaman, F. C. Shelly, K. W. Wierzchos.  1.0-m reflector + CCD.
    J95 Great Shefford.  Observer P. Birtwhistle.  0.41-m f/6.3 Schmidt-Cassegrain 
       + CCD.
    
    Orbital elements:
    2020 FH5                                                 Earth MOID = 0.0259 AU
    Epoch 2020 May 31.0 TT = JDT 2459000.5                  Alexandersen
    M 357.86605              (2000.0)            P               Q
    n   0.40913127     Peri.  105.21499     +0.12084576     +0.99095009
    a   1.7970532      Node   171.08900     -0.99210935     +0.12254828
    e   0.5735235      Incl.   22.16158     -0.03339681     -0.05477085
    P   2.41           H   23.1           G   0.15           U   8
    Residuals in seconds of arc
    200324 G96  0.3+  0.5-    200324 033  0.5-  0.0     200325 I52  0.1-  0.9+
    200324 G96  0.0   0.0     200324 033  0.2-  0.2+    200325 I52  0.0   0.5+
    200324 G96  0.4+  0.3+    200325 J95  0.2-  0.2-    200325 I52  0.2+  0.6-
    200324 G96  0.2-  0.5-    200325 J95  0.4+  0.0     200325 I52  0.4-  0.1+
    200324 G96  0.0   0.1+    200325 033  0.2-  0.3+    200325 033  0.3+  0.2+
    200324 G96  0.1+  0.5+    200325 033  0.3-  0.4+    200325 033  0.2+  0.1+
    200324 G96  0.1-  0.3+    200325 H21  0.1-  0.6-    200325 033  0.2+  0.3-
    200324 G96  0.1+  0.0     200325 H21  0.2-  0.5-
    200324 033  0.1-  0.2+    200325 H21  0.6-  0.2-
    
    Ephemeris:
    2020 FH5                 a,e,i = 1.80, 0.57, 22                  q = 0.7664
    Date    TT    R. A. (2000) Decl.     Delta      r    Elong.  Phase     V
    2020 02 25    12 21 41.9 -07 05 55   0.5596  1.4923   147.5    20.9    23.7
    ...
    2020 03 11    12 25 03.0 +02 40 54   0.3786  1.3627   165.1    10.8    22.3
    ...
    2020 03 19    12 24 27.8 +12 27 38   0.3031  1.2917   166.0    10.7    21.7
    ...
    2020 03 25    12 22 47.2 +22 51 50   0.2597  1.2380   155.3    19.7    21.6
    2020 03 26    12 22 23.9 +24 52 37   0.2538  1.2290   152.9    21.7    21.6
    2020 03 27    12 21 58.6 +26 58 04   0.2484  1.2201   150.4    23.8    21.6
    ...
    2020 04 02    12 18 42.3 +40 54 58   0.2246  1.1662   133.8    38.3    21.7
    ...
    2020 04 10    12 11 13.5 +61 10 43   0.2178  1.0949   109.8    59.4    22.1
    ...
    2020 04 25    02 37 00.0 +87 04 07   0.2636  0.9668    73.9    90.9    23.3
    
    A. U. Tomatic                (C) Copyright 2020 MPC           M.P.E.C. 2020-F147
    


    Read MPEC 2020-F146 Read MPEC 2020-F148


    MPEC number:

    Enter an MPEC number in one of the following forms:

    • 1997-B01 (the full form)
    • J97B01 (the packed version of the full form)
    • B01 (the abbreviated form)